FW6834 Weather Reports


Display with metric or nautical units.
time (UTC)temp
F
wind
direction
speed
MPH
gust
MPH
rain 1hr
in
rain 24hr
in
rain mn
in
humidity
%
barometer
mb
20260503212602 86 301 6.0 15.0 0.00 0.00 0.00 22 1052.8
20260503211102 86 224 7.0 14.0 0.00 0.00 0.00 20 1053.2
20260503205602 86 201 8.0 16.0 0.00 0.00 0.00 21 1053.5
20260503202602 86 209 11.0 13.0 0.00 0.00 0.00 21 1053.8
20260503201102 87 277 7.0 13.0 0.00 0.00 0.00 22 1054.2
20260503195602 86 176 10.0 15.0 0.00 0.00 0.00 22 1054.5
20260503194102 86 184 7.0 13.0 0.00 0.00 0.00 21 1054.9
20260503191602 87 249 8.0 14.0 0.00 0.00 0.00 20 1055.2
20260503183102 86 227 9.0 15.0 0.00 0.00 0.00 25 1055.5
20260503181602 86 273 5.0 13.0 0.00 0.00 0.00 26 1055.9
20260503174603 85 242 9.0 9.0 0.00 0.00 0.00 28 1056.2
20260503171603 84 167 8.0 10.0 0.00 0.00 0.00 29 1056.9
20260503081602 57 199 4.0 8.0 0.00 0.00 0.00 60 1058.6
20260503071603 57 129 3.0 6.0 0.00 0.00 0.00 59 1059.3
20260503070103 57 172 4.0 6.0 0.00 0.00 0.00 59 1059.3
20260503054602 59 134 3.0 5.0 0.00 0.00 0.00 54 1059.6
20260503051603 59 125 3.0 4.0 0.00 0.00 0.00 53 1059.6
20260503041602 61 133 4.0 7.0 0.00 0.00 0.00 51 1059.3
20260503034602 62 105 3.0 5.0 0.00 0.00 0.00 51 1059.3
20260503033102 62 68 4.0 4.0 0.00 0.00 0.00 50 1059.3
20260503032102 62 110 3.0 4.0 0.00 0.00 0.00 50 1059.3
20260503030603 63 126 3.0 4.0 0.00 0.00 0.00 48 1058.9
20260503025102 64 140 2.0 6.0 0.00 0.00 0.00 47 1059.3
20260503023602 64 86 6.0 6.0 0.00 0.00 0.00 45 1059.3
20260503022102 65 101 4.0 6.0 0.00 0.00 0.00 44 1058.9
20260503020602 66 93 5.0 7.0 0.00 0.00 0.00 43 1058.6
20260503013602 68 92 2.0 3.0 0.00 0.00 0.00 39 1058.2
20260503012102 69 49 2.0 4.0 0.00 0.00 0.00 38 1058.2
20260503010603 70 87 2.0 4.0 0.00 0.00 0.00 36 1058.2
20260503003602 72 80 2.0 6.0 0.00 0.00 0.00 34 1058.2
20260503002103 73 99 2.0 3.0 0.00 0.00 0.00 33 1057.9
20260502235102 74 88 4.0 9.0 0.00 0.00 0.00 32 1058.2
20260502233603 76 11 0.0 3.0 0.00 0.00 0.00 33 1058.2
20260502232102 76 93 1.0 2.0 0.00 0.00 0.00 31 1058.2
20260502230603 75 120 4.0 6.0 0.00 0.00 0.00 32 1058.6
20260502223602 77 293 3.0 7.0 0.00 0.00 0.00 31 1058.6
20260502222102 78 295 5.0 6.0 0.00 0.00 0.00 30 1058.6
20260502220602 78 342 1.0 6.0 0.00 0.00 0.00 28 1058.6
20260502215102 78 323 4.0 7.0 0.00 0.00 0.00 30 1058.9